Time,TemperatureF,DewpointF,PressureIn,WindDirection,WindDirectionDegrees,WindSpeedMPH,WindSpeedGustMPH,Humidity,HourlyPrecipIn,Conditions,Clouds,dailyrainin,SolarRadiationWatts/m^2,SoftwareType,DateUTC
2013-05-15 00:01:00,39.4,32.0,29.63,ESE,114,0.0,2.0,76,0.00,,,0.00,0,weatherlink.com 1.10,2013-05-15 08:01:00,
2013-05-15 00:16:00,39.0,33.0,29.63,ESE,114,0.0,2.0,78,0.00,,,0.00,0,weatherlink.com 1.10,2013-05-15 08:16:00,
2013-05-15 00:31:00,38.6,33.0,29.63,ESE,114,0.0,2.0,80,0.00,,,0.00,0,weatherlink.com 1.10,2013-05-15 08:31:00,
2013-05-15 00:46:00,38.2,33.0,29.64,ESE,114,0.0,2.0,80,0.00,,,0.00,0,weatherlink.com 1.10,2013-05-15 08:46:00,
2013-05-15 01:01:00,37.8,33.0,29.64,SE,132,2.0,7.0,82,0.00,,,0.00,0,weatherlink.com 1.10,2013-05-15 09:01:00,
2013-05-15 01:17:00,37.7,33.0,29.65,ESE,122,1.0,6.0,83,0.00,,,0.00,0,weatherlink.com 1.10,2013-05-15 09:17:00,
2013-05-15 01:32:00,37.7,33.0,29.65,ESE,112,1.0,5.0,83,0.00,,,0.00,0,weatherlink.com 1.10,2013-05-15 09:32:00,
2013-05-15 01:47:00,38.2,33.0,29.66,ENE,78,0.0,6.0,82,0.00,,,0.00,0,weatherlink.com 1.10,2013-05-15 09:47:00,
2013-05-15 02:02:00,38.7,33.0,29.66,ESE,115,0.0,10.0,80,0.00,,,0.00,0,weatherlink.com 1.10,2013-05-15 10:02:00,
2013-05-15 02:17:00,38.8,33.0,29.66,East,98,3.0,8.0,80,0.00,,,0.00,0,weatherlink.com 1.10,2013-05-15 10:17:00,
2013-05-15 02:32:00,38.5,32.0,29.67,ENE,74,1.0,6.0,78,0.00,,,0.00,0,weatherlink.com 1.10,2013-05-15 10:32:00,
2013-05-15 02:47:00,38.4,32.0,29.67,ESE,113,4.0,8.0,77,0.00,,,0.00,0,weatherlink.com 1.10,2013-05-15 10:47:00,
2013-05-15 03:02:00,38.5,31.0,29.67,East,96,8.0,9.0,75,0.00,,,0.00,0,weatherlink.com 1.10,2013-05-15 11:02:00,
2013-05-15 03:17:00,38.2,32.0,29.68,East,87,6.0,9.0,77,0.00,,,0.00,0,weatherlink.com 1.10,2013-05-15 11:17:00,
2013-05-15 03:32:00,38.4,30.0,29.68,East,94,6.0,11.0,73,0.00,,,0.00,0,weatherlink.com 1.10,2013-05-15 11:32:00,
2013-05-15 03:47:00,38.6,30.0,29.67,East,97,2.0,6.0,70,0.00,,,0.00,0,weatherlink.com 1.10,2013-05-15 11:47:00,
2013-05-15 04:02:00,38.8,29.0,29.68,East,98,2.0,8.0,68,0.00,,,0.00,0,weatherlink.com 1.10,2013-05-15 12:02:00,
2013-05-15 04:32:00,38.8,30.0,29.68,East,96,1.0,4.0,70,0.00,,,0.00,0,weatherlink.com 1.10,2013-05-15 12:32:00,
2013-05-15 04:47:00,38.4,31.0,29.68,East,99,0.0,6.0,74,0.00,,,0.00,0,weatherlink.com 1.10,2013-05-15 12:47:00,
2013-05-15 05:02:00,38.3,31.0,29.69,ESE,105,1.0,8.0,76,0.00,,,0.00,0,weatherlink.com 1.10,2013-05-15 13:02:00,
2013-05-15 05:32:00,38.3,32.0,29.69,ESE,102,0.0,5.0,77,0.00,,,0.00,5,weatherlink.com 1.10,2013-05-15 13:32:00,
2013-05-15 05:47:00,38.2,32.0,29.69,East,100,5.0,7.0,77,0.00,,,0.00,12,weatherlink.com 1.10,2013-05-15 13:47:00,
2013-05-15 06:02:00,38.2,32.0,29.70,East,93,0.0,2.0,77,0.00,,,0.00,16,weatherlink.com 1.10,2013-05-15 14:02:00,
2013-05-15 06:17:00,38.2,32.0,29.70,East,93,0.0,2.0,77,0.00,,,0.00,26,weatherlink.com 1.10,2013-05-15 14:17:00,
2013-05-15 06:32:00,38.4,32.0,29.70,East,93,0.0,2.0,77,0.00,,,0.00,37,weatherlink.com 1.10,2013-05-15 14:32:00,
2013-05-15 07:17:00,38.8,33.0,29.70,East,96,1.0,6.0,78,0.00,,,0.00,51,weatherlink.com 1.10,2013-05-15 15:17:00,
2013-05-15 07:32:00,39.0,33.0,29.71,East,96,0.0,5.0,78,0.00,,,0.00,39,weatherlink.com 1.10,2013-05-15 15:32:00,
2013-05-15 07:47:00,39.1,33.0,29.71,East,96,0.0,0.0,78,0.00,,,0.00,56,weatherlink.com 1.10,2013-05-15 15:47:00,
2013-05-15 08:17:00,39.7,34.0,29.72,East,97,0.0,4.0,79,0.00,,,0.00,67,weatherlink.com 1.10,2013-05-15 16:17:00,
2013-05-15 08:32:00,40.4,34.0,29.72,East,96,1.0,4.0,77,0.00,,,0.00,70,weatherlink.com 1.10,2013-05-15 16:32:00,
2013-05-15 08:47:00,40.9,33.0,29.72,WSW,241,5.0,7.0,73,0.00,,,0.00,132,weatherlink.com 1.10,2013-05-15 16:47:00,
2013-05-15 09:02:00,40.4,32.0,29.72,West,259,6.0,8.0,72,0.00,,,0.00,139,weatherlink.com 1.10,2013-05-15 17:02:00,
2013-05-15 09:17:00,40.0,33.0,29.72,WSW,246,6.0,10.0,76,0.00,,,0.00,373,weatherlink.com 1.10,2013-05-15 17:17:00,
2013-05-15 09:32:00,40.8,32.0,29.72,West,271,8.0,11.0,70,0.00,,,0.00,383,weatherlink.com 1.10,2013-05-15 17:32:00,
2013-05-15 10:02:00,42.4,30.0,29.72,WNW,286,7.0,10.0,62,0.00,,,0.00,301,weatherlink.com 1.10,2013-05-15 18:02:00,
2013-05-15 10:17:00,42.5,29.0,29.73,West,273,8.0,13.0,60,0.00,,,0.00,236,weatherlink.com 1.10,2013-05-15 18:17:00,
2013-05-15 10:32:00,42.3,30.0,29.73,West,280,6.0,12.0,61,0.00,,,0.00,429,weatherlink.com 1.10,2013-05-15 18:32:00,
2013-05-15 11:02:00,42.4,31.0,29.73,SW,216,3.0,13.0,64,0.00,,,0.00,570,weatherlink.com 1.10,2013-05-15 19:02:00,
2013-05-15 11:17:00,42.5,31.0,29.73,WSW,250,12.0,12.0,64,0.00,,,0.00,294,weatherlink.com 1.10,2013-05-15 19:17:00,
2013-05-15 11:32:00,43.1,30.0,29.73,West,271,6.0,12.0,61,0.00,,,0.00,360,weatherlink.com 1.10,2013-05-15 19:32:00,
2013-05-15 11:47:00,43.7,30.0,29.73,West,281,7.0,11.0,58,0.00,,,0.00,185,weatherlink.com 1.10,2013-05-15 19:47:00,
2013-05-15 12:02:00,43.4,28.0,29.73,West,272,7.0,12.0,56,0.00,,,0.00,179,weatherlink.com 1.10,2013-05-15 20:02:00,
2013-05-15 12:17:00,44.0,29.0,29.73,West,261,8.0,11.0,55,0.00,,,0.00,223,weatherlink.com 1.10,2013-05-15 20:17:00,
2013-05-15 12:32:00,43.8,29.0,29.73,West,272,6.0,13.0,56,0.00,,,0.00,234,weatherlink.com 1.10,2013-05-15 20:32:00,
2013-05-15 13:03:00,43.6,28.0,29.73,WSW,257,13.0,14.0,55,0.00,,,0.00,216,weatherlink.com 1.10,2013-05-15 21:03:00,
2013-05-15 13:17:00,44.4,29.0,29.73,West,262,8.0,11.0,54,0.00,,,0.00,229,weatherlink.com 1.10,2013-05-15 21:17:00,
2013-05-15 13:32:00,44.2,28.0,29.73,WSW,250,10.0,12.0,54,0.00,,,0.00,206,weatherlink.com 1.10,2013-05-15 21:32:00,
2013-05-15 13:47:00,44.6,30.0,29.73,SW,217,6.0,11.0,56,0.00,,,0.00,162,weatherlink.com 1.10,2013-05-15 21:47:00,
2013-05-15 14:18:00,45.2,29.0,29.73,West,271,4.0,9.0,54,0.00,,,0.00,186,weatherlink.com 1.10,2013-05-15 22:18:00,
2013-05-15 14:33:00,45.9,29.0,29.73,West,264,8.0,9.0,53,0.00,,,0.00,204,weatherlink.com 1.10,2013-05-15 22:33:00,
2013-05-15 14:48:00,48.5,28.0,29.73,ENE,70,10.0,11.0,45,0.00,,,0.00,248,weatherlink.com 1.10,2013-05-15 22:48:00,
2013-05-15 15:33:00,49.3,27.0,29.73,East,82,2.0,19.0,43,0.00,,,0.00,232,weatherlink.com 1.10,2013-05-15 23:33:00,
2013-05-15 15:48:00,48.2,26.0,29.73,ESE,103,5.0,22.0,43,0.00,,,0.00,287,weatherlink.com 1.10,2013-05-15 23:48:00,
2013-05-15 16:03:00,48.2,27.0,29.74,East,88,14.0,22.0,44,0.00,,,0.00,230,weatherlink.com 1.10,2013-05-16 00:03:00,
2013-05-15 16:33:00,48.2,26.0,29.73,ENE,74,15.0,26.0,43,0.00,,,0.00,246,weatherlink.com 1.10,2013-05-16 00:33:00,
2013-05-15 16:48:00,48.2,27.0,29.74,ENE,62,16.0,26.0,44,0.00,,,0.00,288,weatherlink.com 1.10,2013-05-16 00:48:00,
2013-05-15 17:03:00,48.4,27.0,29.74,East,80,11.0,24.0,43,0.00,,,0.00,380,weatherlink.com 1.10,2013-05-16 01:03:00,
2013-05-15 17:18:00,47.9,27.0,29.74,ESE,107,4.0,23.0,45,0.00,,,0.00,236,weatherlink.com 1.10,2013-05-16 01:18:00,
2013-05-15 17:33:00,47.8,27.0,29.74,East,100,5.0,22.0,44,0.00,,,0.00,209,weatherlink.com 1.10,2013-05-16 01:33:00,
2013-05-15 18:48:00,46.7,28.0,29.74,East,80,12.0,23.0,48,0.00,,,0.00,144,weatherlink.com 1.10,2013-05-16 02:48:00,
2013-05-15 19:03:00,46.6,29.0,29.74,ENE,74,19.0,23.0,50,0.00,,,0.00,116,weatherlink.com 1.10,2013-05-16 03:03:00,
2013-05-15 19:18:00,45.5,28.0,29.74,East,79,20.0,25.0,51,0.00,,,0.00,104,weatherlink.com 1.10,2013-05-16 03:18:00,
2013-05-15 19:33:00,45.6,28.0,29.75,ESE,103,1.0,15.0,51,0.00,,,0.00,95,weatherlink.com 1.10,2013-05-16 03:33:00,
2013-05-15 19:48:00,45.0,29.0,29.75,ENE,70,10.0,22.0,53,0.00,,,0.00,81,weatherlink.com 1.10,2013-05-16 03:48:00,
2013-05-15 20:03:00,44.7,29.0,29.74,ENE,66,9.0,24.0,54,0.00,,,0.00,60,weatherlink.com 1.10,2013-05-16 04:03:00,
2013-05-15 20:18:00,44.4,29.0,29.75,East,88,16.0,16.0,54,0.00,,,0.00,46,weatherlink.com 1.10,2013-05-16 04:18:00,
2013-05-15 20:33:00,44.3,28.0,29.75,ENE,59,6.0,13.0,54,0.00,,,0.00,44,weatherlink.com 1.10,2013-05-16 04:33:00,
2013-05-15 20:48:00,44.2,29.0,29.74,ESE,109,4.0,15.0,56,0.00,,,0.00,51,weatherlink.com 1.10,2013-05-16 04:48:00,
2013-05-15 21:03:00,43.8,29.0,29.74,ESE,109,2.0,9.0,56,0.00,,,0.00,42,weatherlink.com 1.10,2013-05-16 05:03:00,
2013-05-15 21:18:00,43.9,29.0,29.74,ESE,117,1.0,8.0,56,0.00,,,0.00,37,weatherlink.com 1.10,2013-05-16 05:18:00,
2013-05-15 21:33:00,43.8,28.0,29.74,ESE,109,1.0,14.0,55,0.00,,,0.00,25,weatherlink.com 1.10,2013-05-16 05:33:00,
2013-05-15 21:48:00,44.1,27.0,29.74,East,101,5.0,11.0,52,0.00,,,0.00,16,weatherlink.com 1.10,2013-05-16 05:48:00,
2013-05-15 22:03:00,44.4,27.0,29.74,East,101,2.0,20.0,50,0.00,,,0.00,7,weatherlink.com 1.10,2013-05-16 06:03:00,
2013-05-15 22:18:00,44.3,27.0,29.74,ESE,107,1.0,19.0,51,0.00,,,0.00,5,weatherlink.com 1.10,2013-05-16 06:18:00,
2013-05-15 22:33:00,43.9,28.0,29.74,ESE,111,2.0,10.0,54,0.00,,,0.00,0,weatherlink.com 1.10,2013-05-16 06:33:00,
2013-05-15 22:48:00,42.8,30.0,29.74,ESE,119,1.0,10.0,60,0.00,,,0.00,0,weatherlink.com 1.10,2013-05-16 06:48:00,
2013-05-15 23:03:00,42.4,30.0,29.74,ESE,110,2.0,10.0,61,0.00,,,0.00,0,weatherlink.com 1.10,2013-05-16 07:03:00,
2013-05-15 23:18:00,42.1,31.0,29.74,SSE,150,10.0,14.0,64,0.00,,,0.00,0,weatherlink.com 1.10,2013-05-16 07:18:00,
2013-05-15 23:33:00,41.8,31.0,29.74,East,95,0.0,15.0,66,0.00,,,0.00,0,weatherlink.com 1.10,2013-05-16 07:33:00,
2013-05-15 23:48:00,41.6,31.0,29.74,ESE,121,4.0,12.0,67,0.00,,,0.00,0,weatherlink.com 1.10,2013-05-16 07:48:00,